Hourly Weather Roundup
Issued by NWS Central Illinois

Home | Current Version | Previous Version | Text Only | Print | Product List | Glossary On
Versions: 1 2 3 4 5 6 7 8 9 10 11 12 13 14 15 16 17 18 19 20 21 22 23 24 25 26 27 28 29 30 31 32 33 34 35 36 37 38 39 40 41 42 43 44 45 46 47 48 49 50
000
NZUS43 KILX 272210
HWRILX

AREA WEATHER ROUNDUP
NATIONAL WEATHER SERVICE, LINCOLN IL
500 PM CDT FRI MAY 27 2016


CITY           SKY/WX    TMP DP  RH WIND       PRES   REMARKS
BLOOMINGTON    PTSUNNY   78  69  73 S18       29.85F HX  80
CHAMPAIGN      CLOUDY    80  66  62 S22       29.87S HX  82
DANVILLE       RAIN      82  65  56 S16       29.85S HX  83
DECATUR        CLOUDY    77  67  71 S13       29.85F
EFFINGHAM      CLOUDY    77  71  82 SE8       29.89S
FLORA          LGT RAIN  76  71  82 S15       29.90R
GALESBURG      CLOUDY    77  68  75 S9        29.78F
JACKSONVILLE   CLOUDY    76  69  78 SE12      29.80F
LACON          CLOUDY    77  67  70 S8        29.80S
LAWRENCEVILLE  SUNNY     85  64  49 S22G30    29.89F HX  86
LITCHFIELD     CLOUDY    74  67  78 S13       29.83F
$$


CITY           SKY/WX    TMP DP  RH WIND       PRES   REMARKS
LINCOLN        CLOUDY    77  69  74 S16       29.82F
MACOMB         CLOUDY    77  69  76 S12       29.80F
MATTOON        CLOUDY    76  69  79 S8        29.86F
MT CARMEL AP   PTSUNNY   82  65  55 S20G25    29.89S HX  84
OLNEY-NOBLE AP HVY RAIN  73  70  88 S13G25    29.92R
PARIS          CLOUDY    81  67  62 S10       29.89F HX  84
PEORIA         CLOUDY    77  66  68 S17       29.80F
PONTIAC        PTSUNNY   81  67  63 S22       29.84F HX  83
RANTOUL        PTSUNNY   82  67  62 S18G26    29.86F HX  84
ROBINSON       CLOUDY    79  67  65 S15       29.89F HX  81
SPRINGFIELD    CLOUDY    77  68  73 S14       29.82F
TAYLORVILLE    LGT RAIN  73  69  89 SE12      29.84F
$$

...REGIONAL REPORTS...


CITY           SKY/WX    TMP DP  RH WIND       PRES   REMARKS
CHICAGO O`HARE CLOUDY    77  67  71 S15       29.83S
KANKAKEE       CLOUDY    81  64  56 S20G31    29.85S HX  83
MOLINE         CLOUDY    78  68  71 S10G22    29.76F HX  80
MOUNT STERLING CLOUDY    78  70  77 SE13      29.77F
MOUNT VERNON   CLOUDY    73  70  88 S3        29.89F
PITTSFIELD     PTSUNNY   77  71  81 SE13      29.80S
QUINCY         PTSUNNY   79  68  69 S9        29.76F HX  81
ROCKFORD       CLOUDY    73  67  81 S12       29.82F
$$


CITY           SKY/WX    TMP DP  RH WIND       PRES   REMARKS
BURLINGTON     MOSUNNY   78  69  73 S12       29.75F HX  80
CEDAR RAPIDS   PTSUNNY   81  69  67 S12       29.71F HX  84
DES MOINES     CLOUDY    76  62  62 W7        29.73F
KIRKSVILLE     SUNNY     82  66  58 W5        29.73F HX  84
OTTUMWA        MOSUNNY   80  65  59 SW7       29.72F HX  82
ST LOUIS       CLOUDY    78  68  71 S15G23    29.81F HX  80
$$


CITY           SKY/WX    TMP DP  RH WIND       PRES   REMARKS
TERRE HAUTE    MOSUNNY   82  65  56 S13G22    29.90F HX  84
EVANSVILLE     SUNNY     84  60  44 S20G26    29.91F HX  84
INDIANAPOLIS   MOSUNNY   84  58  40 S20       29.91F HX  83
LAFAYETTE      MOSUNNY   83  58  42 S14G23    29.88S HX  83
MADISON        CLOUDY    74  66  76 VRB6      29.77S
MILWAUKEE      CLOUDY    69  65  86 SE10      29.83S
$$





USA.gov is the U.S. government's official web portal to all federal, state and local government web resources and services.